Regional Weather Roundup
Issued by NWS Goodland, KS

Home | Current Version | Previous Version | Graphics & Text | Print | Product List | Glossary On
Versions: 1 2 3 4 5 6 7 8 9 10 11 12 13 14 15 16 17 18 19 20 21 22 23 24 25 26 27 28 29 30 31 32 33 34 35 36 37 38 39 40 41 42 43 44 45 46 47 48 49 50
030
ASUS43 KGLD 180408
RWRGLD

GOODLAND FORECAST AREA HOURLY WEATHER ROUNDUP
NATIONAL WEATHER SERVICE GOODLAND KS
900 PM MST TUE JAN 17 2017

...OFFICIAL OBSERVATIONS...

CITY           SKY/WX    TMP DP  RH WIND       PRES   REMARKS
GOODLAND KS    CLEAR     36  30  79 SW16      30.05R
HILL CITY KS   CLEAR     32  26  78 SW7       30.10S
IMPERIAL NEB   CLOUDY    30  27  88 SW8       30.02R
MCCOOK NEB     CLEAR     31  27  85 SW9       30.05R
AKRON CO       CLOUDY    26  22  84 W12       30.00S WCI  16
BURLINGTON CO  CLEAR     32  28  85 S15       30.06R
LIMON CO       CLOUDY    19  18  95 N3        30.04R
$$

...UNOFFICIAL OBSERVATIONS...

CITY           SKY/WX    TMP DP  RH WIND       PRES   REMARKS
LENORA KS        N/A     34  32  92 S10         N/A
NORTON KS      CLEAR     34  25  69 S7        30.07R
SHARON SPRINGS   N/A     33  30  88 SW8         N/A
TRENTON NEB      N/A     32  32 100 W5          N/A
KIT CARSON CO    N/A     28  25  89 CALM        N/A
YUMA CO        FAIR      19  18  93 W10       30.01R WCI   8
$$




USA.gov is the U.S. government's official web portal to all federal, state and local government web resources and services.